EHI
0 0 0 0 0 0 0 0 0 0 0 0 0 0 0 0 0 0 0 0 0 0 0 0 0 0 0 0 0 0 0 0 0 0 0 0 0 0 0 0 0 0 0
0 0 0 0 0 0 0 0 0 0 0 0 0 0 0 0 0 0 0 0 0 0 0 0 0 0 0 0 0 0 0 0 0 0 0 0 0 0 0 0 0 0 0
0 0 0 0 0 0 0 0 0 0 0 0 0 0 0 0 0 0 0 0 0 0 0 0 0 0 0 0 0 0 0 0 0 0 0 0 0 0 0 0 0 0 0
0 0 0 0 0 0 0 0 0 0 0 0 0 0 0 0 0 0 0 0 0 0 0 0 0 0 0 0 0 0 0 0 0 0 0 0 0 0 0 0 0 0 0
0 0 0 0 0 0 0 0 0 0 0 0 0 0 0 0 0 0 0 0 0 0 0 0 0 0 0 0 0 0 0 0 0 0 0 0 0 0 0 0 0 0 0
0 0 0 0 0 0 0 0 0 0 0 0 0 0 0 0 0 0 0 0 0 0 0 0 0 0 0 0 0 0 0 0 0 0 0 0 0 0 0 0 0 0 0
0 0 0 0 0 0 0 0 0 0 0 0 0 0 0 0 0 0 0 0 0 0 0 0 0 0 0 0 0 0 0 0 0 0 0 0 0 0 0 0 0 0 0
0 0 0 0 0 0 0 0 0 0 0 0 0 0 0 0 0 0 0 0 0 0 0 0 0 0 0 0 0 0 0 0 0 0 0 0 0 0 0 0 0 0 0
0 0 0 0 0 0 0 0 0 0 0 0 0 0 0 0 0 0 0 0 0 0 0 0 0 0 0 0 0 0 0 0 0 0 0 0 0 0 0 0 0 0 0
0 0 0 0 0 0 0 0 0 0 0 0 0 0 0 0 0 0 0 0 0 0 0 0 0 0 0 0 0 0 0 0 0 0 0 0 0 0 0 0 0 0 0
0 0 0 0 0 0 0 0 0 0 0 0 0 0 0 0 0 0 0 0 0 0 0 0 0 0 0 0 0 0 0 0 0 0 0 0 0 0 0 0 0 0 0
0 0 0 0 0 0 0 0 0 0 0 0 0 0 0 0 0 0 0 0 0 0 0 0 0 0 0 0 0 0 0 0 0 0 0 0 0 0 0 0 0 0 0
0 0 0 0 0 0 0 0 0 0 0 0 0 0 0 0 0 0 0 0 0 0 0 0 0 0 0 0 0 0 0 0 0 0 0 0 0 0 0 0 0 0 0
0 0 0 0 0 0 0 0 0 0 0 0 0 0 0 0 0 0 0 0 0 0 0 0 0 0 0 0 0 0 0 0 0 0 0 0 0 0 0 0 0 0 0
0 0 0 0 0 0 0 0 0 0 0 0 0 0 0 0 0 0 0 0 0 0 0 0 0 0 0 0 0 0 0 0 0 0 0 0 0 0 0 0 0 0 0
0 0 0 0 0 0 0 0 0 0 0 0 0 0 0 0 0 0 0 0 0 0 0 0 0 0 0 0 0 0 0 0 0 0 0 0 0 0 0 0 0 0 0
0 0 0 0 0 0 0 0 0 0 0 0 0 0 0 0 0 0 0 0 0 0 0 0 0 0 0 0 0 0 0 0 0 0 0 0 0 0 0 0 0 0 0
0 0 0 0 0 0 0 0 0 0 0 0 0 0 0 0 0 0 0 0 0 0 0 0 0 0 0 0 0 0 0 0 0 0 0 0 0 0 0 0 0 0 0
0 0 0 0 0 0 0 0 0 0 0 0 0 0 0 0 0 0 0 0 0 0 0 0 0 0 0 0 0 0 0 0 0 0 0 0 0 0 0 0 0 0 0
0 0 0 0 0 0 0 0 0 0 0 0 0 0 0 0 0 0 0 0 0 0 0 0 0 0 0 0 0 0 0 0 0 0 0 0 0 0 0 0 0 0 0
0 0 0 0 0 0 0 0 0 0 0 0 0 0 0 0 0 0 0 0 0 0 0 0 0 0 0 0 0 0 0 0 0 0 0 0 0 0 0 0 0 0 0
0 0 0 0 0 0 0 0 0 0 0 0 0 0 0 0 0 0 0 0 0 0 0 0 0 0 0 0 0 0 0 0 0 0 0 0 0 0 0 0 0 0 0
0 0 0 0 0 0 0 0 0 0 0 0 0 0 0 0 0 0 0 0 0 0 0 0 0 0 0 0 0 0 0 0 0 0 0 0 0 0 0 0 0 0 0
0 0 0 0 0 0 0 0 0 0 0 0 0 0 0 0 0 0 0 0 0 0 0 0 0 0 0 0 0 0 0 0 0 0 0 0 0 0 0 0 0 0 0
0 0 0 0 0 0 0 0 0 0 0 0 0 0 0 0 0 0 0 0 0 0 0 0 0 0 0 0 0 0 0 0 0 0 0 0 0 0 0 0 0 0 0
0 0 0 0 0 0 0 0 0 0 0 0 0 0 0 0 0 0 0 0 0 0 0 0 0 0 0 0 0 0 0 0 0 0 0 0 0 0 0 0 0 0 0
Wind_Speed
2 2 1 2 2 2 2 2 2 3 3 3 3 3 3 3 2 2 2 5 6 5 5 4 5 5 5 5 5 5 5 6 6 6 6 6 7 7 7 6 6 6 6
2 1 2 1 1 1 1 1 2 2 2 2 3 3 2 2 2 2 2 3 6 6 5 5 5 5 5 6 5 5 6 6 6 6 6 6 6 7 8 8 7 7 7
2 2 1 1 1 1 2 2 2 2 2 2 3 3 2 2 1 2 2 2 3 5 5 5 5 5 5 6 6 6 7 7 7 7 7 7 7 7 8 8 8 8 8
2 2 2 1 1 1 2 2 2 2 2 2 2 2 2 2 2 1 1 2 2 2 4 6 6 6 6 7 7 7 7 7 8 8 7 8 8 8 8 9 9 9 9
2 2 1 1 1 2 2 2 2 1 1 2 2 2 2 2 2 2 2 2 2 2 2 4 7 7 7 8 8 8 8 8 8 8 9 9 9 9 9 9 9 10 10
2 2 2 2 2 2 2 1 2 2 1 1 2 2 2 2 1 1 1 1 2 3 3 3 3 5 8 8 9 9 9 9 9 9 9 10 10 10 11 10 10 11 11
2 2 2 1 1 1 1 2 2 2 2 2 2 2 2 2 2 1 2 2 2 3 3 3 2 2 3 7 8 9 9 10 10 9 10 10 11 11 11 11 12 12 11
1 1 2 1 1 1 2 2 2 1 1 2 1 1 2 3 3 2 2 2 2 2 3 3 2 2 2 2 6 9 10 10 10 10 10 11 11 12 12 12 12 12 12
1 1 2 2 1 1 1 1 1 2 1 1 1 1 1 1 2 2 2 2 2 2 2 2 2 2 3 2 3 7 10 10 11 11 11 11 12 12 12 12 12 12 13
1 1 1 2 1 1 1 0 1 1 2 1 1 1 1 1 1 2 2 2 2 2 2 3 3 2 2 2 4 8 10 11 11 12 12 12 12 13 13 13 13 13 13
1 1 1 1 1 1 1 0 0 0 1 1 1 0 0 0 1 1 3 3 3 2 2 2 2 2 2 2 2 6 10 11 11 12 13 13 13 13 13 13 13 13 14
1 1 1 1 1 1 1 1 1 1 1 1 1 1 1 1 1 1 2 3 4 3 3 2 1 2 2 2 4 9 10 11 12 12 13 13 13 13 13 13 13 14 14
2 2 2 2 2 2 2 1 1 1 1 2 2 1 1 1 1 1 2 2 3 3 2 2 2 2 2 2 3 9 9 11 12 12 12 12 13 13 13 13 14 14 15
3 3 2 2 2 1 1 1 1 1 1 1 2 2 1 1 1 1 2 1 3 3 2 3 2 2 2 2 5 9 6 11 12 12 12 12 13 13 13 13 14 14 15
2 2 2 2 2 2 2 1 1 2 1 2 2 2 2 2 1 1 1 2 2 3 4 3 2 2 2 3 6 5 4 10 12 13 12 12 12 12 13 13 14 14 15
2 2 2 2 2 2 2 2 1 1 1 2 2 1 1 2 1 1 2 2 2 3 5 3 3 3 4 5 8 5 5 12 12 13 12 12 13 13 13 13 14 14 15
2 2 2 2 2 2 2 2 2 2 2 2 2 2 2 2 2 2 2 2 2 2 5 4 3 3 4 4 6 5 5 5 6 12 13 12 12 12 13 13 14 14 14
2 3 2 3 3 3 3 3 3 3 3 3 3 2 3 2 3 3 2 3 3 3 3 6 4 3 4 5 5 5 5 5 5 10 12 12 12 12 13 13 13 13 14
3 2 2 3 3 3 3 3 4 3 3 3 3 3 4 3 4 3 3 3 3 3 2 4 5 4 4 4 5 5 5 4 6 7 10 11 12 13 13 13 13 13 14
3 3 3 3 3 3 4 4 3 3 3 4 4 4 4 5 5 4 4 4 3 3 3 3 4 4 4 4 3 4 5 4 5 5 7 8 10 12 13 13 13 13 13
3 3 2 2 3 3 4 4 4 4 4 3 4 4 5 6 7 5 4 3 3 3 3 3 4 4 4 3 4 4 5 6 5 4 4 5 5 5 6 10 12 12 13
2 2 3 3 4 3 5 5 4 3 3 4 4 4 4 5 6 7 7 7 5 4 4 4 4 5 5 5 4 4 4 5 5 2 3 6 4 5 5 5 10 13 13
2 3 3 4 4 5 6 6 6 4 4 4 4 4 4 4 5 4 5 7 6 7 7 5 5 5 5 5 5 6 5 5 6 4 4 6 4 5 5 7 12 13 12
3 3 4 4 4 5 6 6 6 4 3 4 4 4 4 4 4 4 3 4 4 4 5 4 5 5 6 5 5 6 6 6 5 4 3 5 5 5 6 5 10 11 12
3 3 4 4 4 4 5 5 4 2 3 4 4 4 4 4 6 6 3 3 4 4 5 6 7 7 8 9 6 3 3 4 5 4 2 3 3 4 5 4 5 9 11
4 3 3 3 4 4 5 5 5 3 3 3 3 3 5 5 6 5 3 3 4 4 3 3 4 5 5 5 7 4 3 3 3 3 2 2 3 3 5 3 3 4 5
Wind_Direction
89 71 59 61 57 52 57 51 47 44 36 34 33 34 26 24 19 7 2 26 29 29 29 34 32 37 33 27 23 17 10 7 4 1 4 1 350 348 345 339 341 338 334
91 90 77 68 58 58 59 62 59 53 39 35 28 25 23 23 24 14 7 14 26 28 26 28 28 26 26 27 19 9 2 355 354 353 354 351 344 342 341 337 331 328 324
92 88 90 76 52 58 68 62 54 49 43 39 26 17 16 11 11 10 16 15 9 23 28 27 24 21 18 19 15 13 6 357 352 349 347 345 339 337 336 334 331 325 320
92 89 84 79 60 69 71 77 63 55 39 27 12 358 360 355 357 356 23 29 21 16 20 26 25 24 22 17 13 5 358 355 350 343 337 335 334 332 329 328 326 325 320
88 95 85 59 70 76 77 75 59 63 47 17 1 4 357 347 337 360 25 25 37 40 24 29 29 24 18 10 3 357 351 345 340 341 338 333 328 326 325 322 322 320 319
98 97 91 62 73 85 73 75 75 51 58 27 19 9 345 338 350 15 11 25 35 43 37 33 28 14 12 6 358 351 346 343 338 335 335 334 332 327 325 322 319 316 315
104 100 91 82 68 88 91 92 89 72 42 35 48 8 350 354 17 21 10 33 32 30 37 32 23 15 360 359 352 346 343 340 338 333 331 329 326 326 326 322 320 317 314
104 112 112 115 90 81 77 78 78 90 52 35 76 65 358 341 345 355 7 36 37 30 29 18 11 8 359 347 341 348 343 338 338 334 329 326 326 323 322 321 322 318 315
124 122 135 123 104 98 119 163 135 124 132 346 38 124 136 247 308 317 350 12 18 18 358 350 355 352 350 351 336 343 342 338 335 333 331 327 324 324 324 323 321 321 320
137 127 142 127 120 117 125 197 128 135 139 180 318 9 162 168 199 303 313 332 345 340 335 341 334 324 341 343 339 343 339 333 330 329 326 323 321 321 321 321 321 320 318
170 165 152 140 152 156 164 139 94 169 173 183 189 202 31 27 196 213 280 306 318 296 298 295 300 307 321 331 324 331 336 332 328 326 324 320 318 318 319 319 318 318 317
191 184 160 167 185 187 194 210 197 211 208 191 201 203 190 194 220 223 261 290 295 294 300 283 280 292 303 317 327 338 336 332 328 325 321 319 318 318 317 316 316 316 315
207 211 196 196 203 210 209 202 194 221 216 207 209 215 222 225 213 217 248 279 290 296 297 289 273 287 305 314 316 331 327 324 322 319 318 317 315 315 315 314 314 313 313
213 205 200 204 208 206 218 207 205 224 217 222 234 215 215 232 224 225 210 237 296 298 288 279 292 276 305 308 309 325 314 317 317 316 316 315 313 314 314 313 312 311 312
210 198 198 206 211 204 207 203 215 228 220 224 231 233 228 228 228 234 222 204 224 278 283 269 283 294 305 306 310 306 298 308 314 312 313 314 312 312 314 314 311 310 310
205 198 206 209 211 210 208 203 225 230 226 244 234 229 253 242 235 237 237 235 222 238 267 270 275 290 299 308 311 310 299 309 309 308 309 310 309 310 312 311 309 309 308
200 201 203 204 213 214 211 206 219 222 228 245 247 239 253 259 238 235 233 232 236 234 266 283 279 292 293 296 305 299 294 291 295 304 307 307 308 309 310 309 309 309 308
205 206 203 207 218 222 215 209 221 228 225 236 247 250 257 265 255 238 232 235 241 240 253 281 290 291 283 283 292 293 301 302 292 300 306 304 305 307 308 307 306 306 307
206 206 204 214 225 227 219 216 216 224 227 233 238 242 251 246 261 254 244 244 247 261 261 274 284 287 287 287 297 297 296 290 295 299 303 302 303 306 307 307 307 306 306
206 207 218 222 225 228 225 220 217 223 231 239 240 243 246 240 247 252 248 244 246 262 271 273 282 288 289 287 286 299 305 296 294 299 298 299 302 306 308 307 307 307 306
216 208 213 229 232 229 224 219 217 222 228 242 252 252 251 253 260 259 258 245 236 248 260 270 281 291 291 297 291 292 297 302 292 284 292 294 298 294 298 301 303 304 304
220 215 222 227 232 237 237 235 230 223 228 236 250 260 264 262 269 277 279 271 257 248 255 264 275 279 282 286 286 289 295 303 299 290 302 298 295 289 289 288 299 304 305
224 231 233 230 234 238 239 240 240 236 228 233 242 253 266 271 278 269 279 281 275 271 260 254 263 270 277 279 282 284 282 284 280 289 301 291 291 286 287 296 304 308 312
224 233 240 235 238 244 243 243 242 231 229 238 241 242 252 264 271 276 276 275 266 268 265 258 253 263 270 272 261 269 275 287 285 277 268 280 288 287 293 292 301 311 319
230 234 238 234 235 246 243 241 239 219 231 243 246 246 250 256 271 285 283 275 277 277 282 282 283 283 286 292 292 286 287 293 297 292 266 270 287 299 295 286 298 318 326
229 234 243 237 232 238 241 237 237 221 232 246 253 255 261 268 272 284 272 266 273 282 297 300 299 305 301 294 299 279 268 277 287 289 272 286 293 317 309 293 296 310 317